VIR23P KMCO-KRSW

Flight info

Callsign VIR23P
Flight time 0h 33m
Altitude 16000
Route FSHUN4 FSHUN SHFTY SHFTY6
Aircraft A346/H-SDE2E3FGHIJ3J4J5M1RWXY/LB1D1

Departure

Time 2026-04-25 03:32
Airport Orlando International Airport (KMCO)

Arrival

Time 2026-04-25 04:05
Airport Southwest Florida International Airport (KRSW)
Time Latitude Longitude Altitude Speed Heading
2026-04-25 03:31 28.16110 -81.39960 11715 ft 306 kts 203°
2026-04-25 03:32 28.13890 -81.40916 12460 ft 310 kts 203°
2026-04-25 03:32 28.11859 -81.41790 13139 ft 314 kts 203°
2026-04-25 03:32 28.09800 -81.42676 13819 ft 318 kts 204°
2026-04-25 03:32 28.07719 -81.43570 14409 ft 321 kts 204°
2026-04-25 03:33 28.05600 -81.44484 15009 ft 324 kts 204°
2026-04-25 03:33 28.03478 -81.45398 15579 ft 328 kts 204°
2026-04-25 03:33 28.01336 -81.46320 15906 ft 330 kts 204°
2026-04-25 03:33 27.99194 -81.47241 15969 ft 330 kts 204°
2026-04-25 03:34 27.97040 -81.48166 15969 ft 330 kts 204°
2026-04-25 03:34 27.94891 -81.49092 15970 ft 330 kts 206°
2026-04-25 03:34 27.92843 -81.50224 15969 ft 327 kts 214°
2026-04-25 03:34 27.90979 -81.51675 15970 ft 323 kts 223°
2026-04-25 03:35 27.89343 -81.53401 15973 ft 320 kts 230°
2026-04-25 03:35 27.87841 -81.55244 15974 ft 320 kts 232°
2026-04-25 03:35 27.86347 -81.57123 15993 ft 321 kts 232°
2026-04-25 03:35 27.84799 -81.59074 16001 ft 348 kts 232°
2026-04-25 03:36 27.83116 -81.61187 16001 ft 369 kts 231°
2026-04-25 03:36 27.81373 -81.63351 15995 ft 373 kts 231°
2026-04-25 03:36 27.79621 -81.65516 15987 ft 373 kts 231°
2026-04-25 03:36 27.77868 -81.67680 15987 ft 373 kts 231°
2026-04-25 03:37 27.76115 -81.69845 15981 ft 373 kts 231°
2026-04-25 03:37 27.74358 -81.72015 15988 ft 373 kts 231°
2026-04-25 03:37 27.72563 -81.74154 15978 ft 376 kts 225°
2026-04-25 03:37 27.70387 -81.75736 15969 ft 383 kts 207°
2026-04-25 03:38 27.67797 -81.76515 15974 ft 390 kts 188°
2026-04-25 03:38 27.65076 -81.76548 15985 ft 392 kts 181°
2026-04-25 03:38 27.62348 -81.76417 15971 ft 393 kts 178°
2026-04-25 03:38 27.59635 -81.75991 15881 ft 395 kts 170°
2026-04-25 03:39 27.56993 -81.75170 15636 ft 394 kts 162°
2026-04-25 03:39 27.54455 -81.74019 15399 ft 393 kts 158°
2026-04-25 03:39 27.51955 -81.72785 15152 ft 391 kts 157°
2026-04-25 03:39 27.49470 -81.71550 14917 ft 389 kts 158°
2026-04-25 03:40 27.47000 -81.70334 14681 ft 387 kts 158°
2026-04-25 03:40 27.44534 -81.69133 14439 ft 385 kts 158°
2026-04-25 03:40 27.42075 -81.67943 14206 ft 383 kts 158°
2026-04-25 03:40 27.39625 -81.66762 13973 ft 382 kts 158°
2026-04-25 03:41 27.37185 -81.65586 13747 ft 380 kts 158°
2026-04-25 03:41 27.34760 -81.64419 13484 ft 378 kts 158°
2026-04-25 03:41 27.32342 -81.63253 13219 ft 376 kts 158°
2026-04-25 03:41 27.29943 -81.62097 12963 ft 374 kts 158°
2026-04-25 03:42 27.27584 -81.60961 12719 ft 372 kts 158°
2026-04-25 03:42 27.25208 -81.59819 12461 ft 370 kts 158°
2026-04-25 03:42 27.22844 -81.58683 12207 ft 368 kts 158°
2026-04-25 03:42 27.20496 -81.57555 11956 ft 365 kts 158°
2026-04-25 03:43 27.18169 -81.56439 11702 ft 363 kts 158°
2026-04-25 03:43 27.15852 -81.55328 11454 ft 361 kts 158°
2026-04-25 03:43 27.13548 -81.54223 11213 ft 359 kts 158°
2026-04-25 03:43 27.11260 -81.53126 10967 ft 357 kts 157°
2026-04-25 03:44 27.08980 -81.52032 10724 ft 354 kts 157°
2026-04-25 03:44 27.06740 -81.50957 10432 ft 347 kts 157°
2026-04-25 03:44 27.04541 -81.49901 10113 ft 341 kts 157°
2026-04-25 03:44 27.02397 -81.48873 10006 ft 327 kts 157°
2026-04-25 03:45 27.00354 -81.47888 9969 ft 313 kts 156°
2026-04-25 03:45 26.98401 -81.46915 9857 ft 302 kts 156°
2026-04-25 03:45 26.96506 -81.45961 9709 ft 297 kts 156°
2026-04-25 03:45 26.94645 -81.45025 9594 ft 297 kts 156°
2026-04-25 03:46 26.92738 -81.44069 9458 ft 296 kts 156°
2026-04-25 03:46 26.90858 -81.43129 9327 ft 295 kts 156°
2026-04-25 03:46 26.89011 -81.42206 9209 ft 295 kts 156°
2026-04-25 03:46 26.87140 -81.41271 9067 ft 294 kts 156°
2026-04-25 03:47 26.85273 -81.40338 8949 ft 293 kts 157°
2026-04-25 03:47 26.83351 -81.39595 8817 ft 292 kts 166°
2026-04-25 03:47 26.81347 -81.39217 8689 ft 291 kts 176°
2026-04-25 03:47 26.79321 -81.39181 8572 ft 291 kts 181°
2026-04-25 03:48 26.77301 -81.39256 8437 ft 290 kts 182°
2026-04-25 03:48 26.75276 -81.39344 8313 ft 290 kts 182°
2026-04-25 03:48 26.73263 -81.39425 8186 ft 289 kts 182°
2026-04-25 03:48 26.71256 -81.39498 8061 ft 289 kts 182°
2026-04-25 03:49 26.69249 -81.39566 7933 ft 288 kts 182°
2026-04-25 03:49 26.67268 -81.39839 7783 ft 287 kts 200°
2026-04-25 03:49 26.65618 -81.41038 7652 ft 285 kts 229°
2026-04-25 03:49 26.64436 -81.42777 7556 ft 284 kts 235°
2026-04-25 03:50 26.63300 -81.44583 7434 ft 284 kts 236°
2026-04-25 03:50 26.62163 -81.46386 7310 ft 283 kts 235°
2026-04-25 03:50 26.61016 -81.48185 7183 ft 283 kts 235°
2026-04-25 03:50 26.59865 -81.49976 7061 ft 282 kts 234°
2026-04-25 03:51 26.58717 -81.51753 6927 ft 282 kts 234°
2026-04-25 03:51 26.57566 -81.53526 6795 ft 281 kts 234°
2026-04-25 03:51 26.56418 -81.55292 6632 ft 278 kts 234°
2026-04-25 03:51 26.55294 -81.57020 6468 ft 271 kts 234°
2026-04-25 03:52 26.54192 -81.58713 6222 ft 266 kts 234°
2026-04-25 03:52 26.53127 -81.60349 5952 ft 262 kts 234°
2026-04-25 03:52 26.52068 -81.61976 5789 ft 254 kts 234°
2026-04-25 03:52 26.51043 -81.63550 5620 ft 246 kts 234°
2026-04-25 03:53 26.50052 -81.65077 5472 ft 239 kts 234°
2026-04-25 03:53 26.49088 -81.66565 5309 ft 231 kts 233°
2026-04-25 03:53 26.48159 -81.67996 5173 ft 224 kts 233°
2026-04-25 03:53 26.47252 -81.69392 4997 ft 219 kts 233°
2026-04-25 03:54 26.46365 -81.70775 4761 ft 219 kts 238°
2026-04-25 03:54 26.45723 -81.72311 4489 ft 218 kts 253°
2026-04-25 03:54 26.45461 -81.73969 4238 ft 217 kts 268°
2026-04-25 03:54 26.45578 -81.75645 3982 ft 217 kts 280°
2026-04-25 03:55 26.45846 -81.77305 3731 ft 216 kts 276°
2026-04-25 03:55 26.45895 -81.78964 3495 ft 215 kts 267°
2026-04-25 03:55 26.45825 -81.80628 3256 ft 214 kts 265°
2026-04-25 03:55 26.45722 -81.82285 3047 ft 213 kts 264°
2026-04-25 03:56 26.45606 -81.83937 3038 ft 213 kts 264°
2026-04-25 03:56 26.45490 -81.85538 3055 ft 199 kts 264°
2026-04-25 03:56 26.45382 -81.87022 3019 ft 186 kts 264°
2026-04-25 03:56 26.45277 -81.88456 3004 ft 185 kts 264°
2026-04-25 03:57 26.45171 -81.89889 3009 ft 185 kts 264°
2026-04-25 03:57 26.45064 -81.91326 2957 ft 186 kts 264°
2026-04-25 03:57 26.44958 -81.92758 2854 ft 184 kts 264°
2026-04-25 03:57 26.44852 -81.94187 2824 ft 184 kts 264°
2026-04-25 03:58 26.44746 -81.95612 2812 ft 184 kts 264°
2026-04-25 03:58 26.44608 -81.97033 2796 ft 183 kts 252°
2026-04-25 03:58 26.43984 -81.98239 2795 ft 180 kts 221°
2026-04-25 03:58 26.42913 -81.98908 2794 ft 177 kts 191°
2026-04-25 03:59 26.41699 -81.98889 2797 ft 175 kts 162°
2026-04-25 03:59 26.40702 -81.98187 2788 ft 174 kts 126°
2026-04-25 03:59 26.40386 -81.96908 2799 ft 176 kts 86°
2026-04-25 03:59 26.40731 -81.95598 2816 ft 178 kts 66°
2026-04-25 04:00 26.41357 -81.94402 2804 ft 179 kts 58°
2026-04-25 04:00 26.42081 -81.93273 2806 ft 179 kts 56°
2026-04-25 04:00 26.42825 -81.92159 2805 ft 179 kts 56°
2026-04-25 04:00 26.43316 -81.91420 2803 ft 178 kts 56°
2026-04-25 04:01 26.44050 -81.90304 2799 ft 177 kts 56°
2026-04-25 04:01 26.44756 -81.89219 2597 ft 168 kts 56°
2026-04-25 04:01 26.45421 -81.88190 2371 ft 158 kts 56°
2026-04-25 04:01 26.46047 -81.87220 2170 ft 152 kts 57°
2026-04-25 04:02 26.46665 -81.86260 1998 ft 152 kts 57°
2026-04-25 04:02 26.47281 -81.85305 1820 ft 151 kts 57°
2026-04-25 04:02 26.47894 -81.84353 1634 ft 150 kts 56°
2026-04-25 04:02 26.48506 -81.83408 1443 ft 149 kts 56°
2026-04-25 04:03 26.49106 -81.82482 1257 ft 148 kts 56°
2026-04-25 04:03 26.49709 -81.81548 1043 ft 148 kts 56°
2026-04-25 04:03 26.50310 -81.80619 863 ft 147 kts 55°
2026-04-25 04:03 26.50913 -81.79692 644 ft 147 kts 56°
2026-04-25 04:04 26.51517 -81.78772 432 ft 147 kts 55°
2026-04-25 04:04 26.52110 -81.77843 282 ft 146 kts 56°
2026-04-25 04:04 26.52708 -81.76920 63 ft 146 kts 56°
2026-04-25 04:04 26.53215 -81.76135 51 ft 93 kts 54°
2026-04-25 04:05 26.53493 -81.75706 48 ft 58 kts 54°
2026-04-25 04:05 26.53670 -81.75432 51 ft 33 kts 54°
2026-04-25 04:05 26.53771 -81.75255 52 ft 27 kts 70°
2026-04-25 04:05 26.53783 -81.75169 52 ft 0 kts 84°
2026-04-25 04:06 26.53783 -81.75162 52 ft 1 kts 104°
2026-04-25 04:06 26.53779 -81.75156 50 ft 2 kts 135°
2026-04-25 04:06 26.53754 -81.75143 52 ft 5 kts 181°
2026-04-25 04:06 26.53710 -81.75173 50 ft 10 kts 225°
2026-04-25 04:07 26.53660 -81.75243 52 ft 13 kts 232°
2026-04-25 04:07 26.53594 -81.75339 52 ft 18 kts 233°
2026-04-25 04:07 26.53537 -81.75426 52 ft 10 kts 233°
2026-04-25 04:07 26.53476 -81.75470 53 ft 12 kts 180°
2026-04-25 04:08 26.53387 -81.75430 53 ft 16 kts 145°
2026-04-25 04:08 26.53304 -81.75365 53 ft 16 kts 145°
2026-04-25 04:08 26.53200 -81.75283 53 ft 20 kts 144°
2026-04-25 04:08 26.53117 -81.75215 53 ft 0 kts 144°
2026-04-25 04:09 26.53106 -81.75206 53 ft 5 kts 144°
2026-04-25 04:09 26.53060 -81.75186 51 ft 10 kts 179°
2026-04-25 04:09 26.52988 -81.75225 51 ft 13 kts 202°
2026-04-25 04:09 26.52952 -81.75228 51 ft 0 kts 167°
2026-04-25 04:10 26.52949 -81.75227 51 ft 0 kts 167°
2026-04-25 04:10 26.52945 -81.75226 52 ft 0 kts 167°
2026-04-25 04:11 26.52937 -81.75224 53 ft 0 kts 167°
2026-04-25 04:11 26.52934 -81.75223 53 ft 1 kts 167°
2026-04-25 04:11 26.52928 -81.75222 48 ft 1 kts 167°
2026-04-25 04:12 26.52923 -81.75221 49 ft 0 kts 167°
2026-04-25 04:12 26.52920 -81.75220 49 ft 0 kts 167°